Location: Banksville Park
(38.5557°N, 75.1182°W)
Time: 03:11:23
(UTC+00:00)

SPOT 3 Rocket - Pass Details

Date: 19 September 2020
Orbit: 779 x 794 km, 98.8° (Epoch: 18 October)

Event Time Altitude Azimuth Distance (km) Brightness Sun altitude
Exits shadow 01:05:38 50° 56° (NE) 992 3.8 -24.2°
Drops below altitude 10° 01:10:13 10° 357° (N) 2,339 6.3 -25.0°
Sets 01:12:35 0° 353° (N) 3,272 7.2 -25.4°
